Showing default

YINHE-1, 45024

Orbit data source: Space-Track

YINHE-1, 45024 is a payload satellite owned by Yinhe (CN) in LEO that was launched on Thu, 16 Jan 2020 UTC via a KUAIZHOU-1A launch vehicle from the Jiuquan Satellite Launch Center, China (JSC). Payload-class satellites include a variety of spacecraft equipped with specific instruments for various scientific and technological missions. These include communications satellites like Starlink; space stations such as the ISS; scientific satellites like the Hubble; Earth observation satellites from companies like Planet Labs, Umbra, and HawkEye 360; GPS; miniature CubeSats for education and research; and military/defense satellites.

Loading next visibility...
Identifier
45024, 2020-004A
Orbit
LEO
Country
Flag of CNCN / PRC
Related business
Manufacturer
Yinhe
Mission
Operational Commercial Communications
Bus & Motor
YH, Unknown motor
Mass
227 kg wet, ~200 kg dry
Launch date (UTC)
2020-01-16 (6 years ago)
Launch vehicle
KUAIZHOU-1A
Launch site
Jiuquan Satellite Launch Center, China (JSC)
Object type
Payload
Rocket body
Debris
Shape & HBR
Box + 1 Pan, Unknown HBR
Radar Cross Section
3.313 m², Large (>1 m²)

Expand to show TLE details & history
Last TLE update: 8 hours ago

TLE from 8 hours ago
0 YINHE-1
1 45024U 20004A   26036.95248429  .00001426  00000-0  18949-3 0  9998
2 45024  86.3988 174.4631 0015629  98.1948 262.1046 14.78954081326523
Epoch: 2026-02-05T22:51Z
TLE epoch observation values (Epoch: 2026-02-05T22:51:34.642Z)
Latitude
-0.00003°
Longitude
55.47143°
Altitude
637.264 km
Speed
7.539 km/s
True Right ascension
11h 37m 51s
True Declination
0° 00' 00"
Sunlit
Object was in full shadow at epoch
Visualization orbit readout
Latitude
Unknown
Longitude
Unknown
Altitude
Unknown
Speed
Unknown
Apparent Right ascension
Unknown
Apparent Declination
Unknown
Sunlit
N/A
Visualization observer readout
Local Sidereal Time
08:51:42
Azimuth
Unknown
Elevation
Unknown
Doppler factor
Unknown
Orbital elements
Apogee altitude
640.481 km
Perigee altitude
618.577 km
Semi-major axis
7,007.666 km
Eccentricity
0.00156
Inclination
86.3988°
RAAN
174.4631°
Arg. of periapsis
98.1948°
True anomaly
261.92725°
Mean anomaly
262.1046°
Eccentric anomaly
262.01592°
Mean motion
3.69984 °/min
Orbital period
97.3 mins
BSTAR
0.00018949
Loading maneuver chart data...
Computing Atmospheric mass density...
Loading historical data...
Loading historical data...
Loading historical data...
Loading historical data...
Loading historical data...
Loading historical data...
Loading historical data...
Other satellites on launch #4 in the year 2020 (2020-01-16 UTC)

Documentation

Showing up to 5 results
|